Location: Bernay
(48.6766°N, 2.9386°E)
Time: 08:39:10
(UTC+00:00)

NOSS 2-3 (C) - Pass Details

Date: 12 January 2026
Orbit: 457 x 1719 km, 63.3° (Epoch: 14 February)

Event Time Altitude Azimuth Distance (km) Brightness Sun altitude
Rises 17:29:15 0° 319° (NW) 2,955 7.3 -11.7°
Reaches altitude 10° 17:31:16 10° 321° (NW) 2,173 6.6 -12.0°
Maximum altitude 17:36:13 73° 47° (NE) 907 4.2 -12.8°
Drops below altitude 10° 17:43:09 10° 132° (SE) 2,992 6.8 -13.9°
Sets 17:46:19 0° 135° (SE) 4,161 7.5 -14.4°
